Flag for United Kingdom Weather past 2 weeks in Dundee, Scotland, United Kingdom

Now
36 °F

Clear.


Feels Like: 31 °F
Forecast: 36 / 54 °F
Wind: 6 mph from West

Location: Leuchars


UV Index: 3 (Moderate)

Visibility: 10 mi


Pressure: 30.15 "Hg

Humidity: 75%

Dew point: 28 °F

Location of DundeeLocation

Historic Weather in Dundee

°F

Dundee temperature yesterday

Maximum temperature yesterday: 55 °F (at 2:50 PM)
Minimum temperature yesterday: 39 °F (at 11:50 PM)
Average temperature yesterday: 49 °F

Past Weeks' High & Low Weather Summary

 TemperatureHumidityPressure
High61 °F (Apr 6, 11:50 AM)100% (Apr 4, 4:50 AM)30.39 "Hg (Apr 4, 4:50 AM)
Low28 °F (Apr 15, 5:50 AM)33% (Apr 17, 12:50 PM)29.45 "Hg (Apr 6, 1:50 PM)
Average48 °F75%29.87 "Hg
* Reported Apr 3 12:50 AM — Apr 18 12:50 AM, Dundee, Weather by CustomWeather, © 2014

Note: Actual official high and low records may vary slightly from our data, if they occured in-between our weather recording intervals... More about our weather records

Advertising

Historic Weather Conditions — Data for Previous 24 hours

 ConditionsComfort  
Time TempWeatherWind HumidityBarometerVisibility
12:50 AM
Apr 18
39 °FClear.3 mph56%30.12 "Hg10 mi
11:50 PM
Apr 17
39 °FClear.6 mph61%30.12 "Hg10 mi
10:50 PM43 °FClear.9 mph53%30.09 "Hg10 mi
9:50 PM43 °FClear.14 mph49%30.07 "Hg10 mi
8:50 PM45 °FSunny.9 mph61%30.07 "Hg10 mi
7:50 PM46 °FScattered clouds.12 mph66%30.04 "HgN/A
6:50 PM52 °FSunny.17 mph44%29.98 "Hg10 mi
5:50 PM54 °FSunny.15 mph38%29.95 "Hg10 mi
4:50 PM52 °FSunny.16 mph41%29.95 "Hg10 mi
3:50 PM54 °FSunny.23 mph33%29.89 "Hg10 mi
2:50 PM55 °FSunny.18 mph33%29.89 "Hg10 mi
1:50 PM54 °FSunny.20 mph33%29.86 "Hg10 mi
12:50 PM54 °FSunny.18 mph33%29.83 "Hg10 mi
11:50 AM54 °FPassing clouds.23 mph41%29.80 "HgN/A
10:50 AM52 °FLight rain. Broken clouds.26 mph62%29.77 "HgN/A
9:50 AM50 °FBroken clouds.25 mph67%29.77 "HgN/A
8:50 AM46 °FPartly sunny.24 mph76%29.77 "HgN/A
7:50 AM46 °FPartly sunny.22 mph76%29.83 "HgN/A
6:50 AM48 °FPartly cloudy.24 mph62%29.83 "HgN/A
5:50 AM48 °FPassing clouds.18 mph71%29.83 "HgN/A
4:50 AM50 °FPartly cloudy.29 mph67%29.80 "HgN/A
3:50 AM50 °FPartly cloudy.21 mph82%29.83 "HgN/A
2:50 AM50 °FPartly cloudy.22 mph82%29.86 "HgN/A
Weather by CustomWeather, © 2014

See weather overview